Time,TemperatureF,DewpointF,PressureIn,WindDirection,WindDirectionDegrees,WindSpeedMPH,WindSpeedGustMPH,Humidity,HourlyPrecipIn,Conditions,Clouds,dailyrainin,SoftwareType,DateUTC
2013-01-14 00:02:00,39.0,38.0,29.78,NW,323,1.0,4.0,95,0.02,,,0.27,,2013-01-14 06:02:00,
2013-01-14 00:12:00,39.0,38.0,29.78,NW,323,1.0,4.0,95,0.02,,,0.27,,2013-01-14 06:12:00,
2013-01-14 00:22:00,38.0,37.0,-100.00,ENE,72,1.0,4.0,95,0.02,,,0.27,,2013-01-14 06:22:00,
2013-01-14 00:33:00,38.0,36.0,28.63,WNW,293,1.0,7.0,94,0.02,,,0.28,,2013-01-14 06:33:00,
2013-01-14 00:42:00,38.0,36.0,28.63,WNW,293,1.0,7.0,94,0.02,,,0.28,,2013-01-14 06:42:00,
2013-01-14 00:53:00,38.0,36.0,32.38,NNW,333,1.0,7.0,94,0.01,,,0.28,,2013-01-14 06:53:00,
2013-01-14 01:02:00,38.0,36.0,3.30,ENE,66,0.0,6.0,94,0.02,,,0.29,,2013-01-14 07:02:00,
2013-01-14 01:12:00,38.0,36.0,3.30,ENE,66,0.0,6.0,94,0.02,,,0.29,,2013-01-14 07:12:00,
2013-01-14 01:22:00,38.0,36.0,-100.00,NW,319,0.0,6.0,94,0.02,,,0.29,,2013-01-14 07:22:00,
2013-01-14 01:32:00,38.0,36.0,5.73,WNW,303,1.0,4.0,94,0.01,,,0.29,,2013-01-14 07:32:00,
2013-01-14 01:42:00,38.0,36.0,5.73,WNW,303,1.0,4.0,94,0.01,,,0.29,,2013-01-14 07:42:00,
2013-01-14 01:53:00,38.0,36.0,-100.00,NNE,33,0.0,9.0,94,0.02,,,0.30,,2013-01-14 07:53:00,
2013-01-14 02:02:00,38.0,36.0,2.31,East,81,0.0,4.0,94,0.01,,,0.30,,2013-01-14 08:02:00,
2013-01-14 02:12:00,38.0,36.0,2.31,East,81,0.0,4.0,94,0.01,,,0.30,,2013-01-14 08:12:00,
2013-01-14 02:22:00,38.0,36.0,3.25,ENE,75,0.0,10.0,94,0.02,,,0.31,,2013-01-14 08:22:00,
2013-01-14 02:32:00,38.0,36.0,18.39,NNW,331,2.0,9.0,94,0.02,,,0.31,,2013-01-14 08:32:00,
2013-01-14 02:42:00,38.0,36.0,18.39,NNW,331,2.0,9.0,94,0.02,,,0.31,,2013-01-14 08:42:00,
2013-01-14 02:53:00,38.0,36.0,3.82,South,172,1.0,6.0,94,0.01,,,0.31,,2013-01-14 08:53:00,
2013-01-14 03:02:00,38.0,36.0,3.15,North,355,2.0,6.0,94,0.02,,,0.32,,2013-01-14 09:02:00,
2013-01-14 03:12:00,38.0,36.0,3.15,North,355,2.0,6.0,94,0.02,,,0.32,,2013-01-14 09:12:00,
2013-01-14 03:22:00,38.0,36.0,17.46,ENE,58,1.0,9.0,94,0.01,,,0.32,,2013-01-14 09:22:00,
2013-01-14 03:33:00,37.0,35.0,1.57,NNE,13,1.0,8.0,94,0.02,,,0.33,,2013-01-14 09:33:00,
2013-01-14 03:42:00,37.0,35.0,1.57,NNE,13,1.0,8.0,94,0.02,,,0.33,,2013-01-14 09:42:00,
2013-01-14 03:53:00,37.0,35.0,31.15,East,96,0.0,9.0,94,0.02,,,0.33,,2013-01-14 09:53:00,
2013-01-14 04:02:00,37.0,35.0,32.51,North,5,3.0,11.0,94,0.01,,,0.33,,2013-01-14 10:02:00,
2013-01-14 04:12:00,37.0,35.0,32.51,North,5,3.0,11.0,94,0.01,,,0.33,,2013-01-14 10:12:00,
2013-01-14 04:22:00,37.0,35.0,-100.00,ENE,74,2.0,9.0,93,0.01,,,0.33,,2013-01-14 10:22:00,
2013-01-14 04:32:00,37.0,35.0,32.38,NE,36,1.0,6.0,93,0.01,,,0.34,,2013-01-14 10:32:00,
2013-01-14 04:42:00,37.0,35.0,32.38,NE,36,1.0,6.0,93,0.01,,,0.34,,2013-01-14 10:42:00,
2013-01-14 04:53:00,37.0,35.0,5.60,East,83,0.0,4.0,93,0.01,,,0.34,,2013-01-14 10:53:00,
2013-01-14 05:02:00,37.0,35.0,18.43,ESE,103,0.0,6.0,93,0.02,,,0.35,,2013-01-14 11:02:00,
2013-01-14 05:12:00,37.0,35.0,18.43,ESE,103,0.0,6.0,93,0.02,,,0.35,,2013-01-14 11:12:00,
2013-01-14 05:22:00,37.0,35.0,3.22,NNW,327,1.0,8.0,94,0.02,,,0.35,,2013-01-14 11:22:00,
2013-01-14 05:32:00,36.0,34.0,6.56,ENE,73,1.0,8.0,94,0.01,,,0.35,,2013-01-14 11:32:00,
2013-01-14 05:42:00,36.0,34.0,6.56,ENE,73,1.0,8.0,94,0.01,,,0.35,,2013-01-14 11:42:00,
2013-01-14 05:53:00,36.0,34.0,32.41,NNW,347,0.0,11.0,93,0.02,,,0.36,,2013-01-14 11:53:00,
2013-01-14 06:03:00,36.0,34.0,3.41,SE,133,1.0,4.0,94,0.01,,,0.36,,2013-01-14 12:03:00,
2013-01-14 06:12:00,36.0,34.0,3.41,SE,133,1.0,4.0,94,0.01,,,0.36,,2013-01-14 12:12:00,
2013-01-14 06:23:00,36.0,34.0,-100.00,East,86,0.0,9.0,94,0.01,,,0.35,,2013-01-14 12:23:00,
2013-01-14 06:33:00,36.0,34.0,-100.00,NNW,329,1.0,8.0,94,0.02,,,0.36,,2013-01-14 12:33:00,
2013-01-14 06:43:00,36.0,34.0,-100.00,NNW,329,1.0,8.0,94,0.02,,,0.36,,2013-01-14 12:43:00,
2013-01-14 06:53:00,36.0,34.0,17.46,NE,47,0.0,6.0,94,0.01,,,0.36,,2013-01-14 12:53:00,
2013-01-14 07:03:00,35.0,33.0,9.12,East,89,0.0,5.0,94,0.01,,,0.36,,2013-01-14 13:03:00,
2013-01-14 07:12:00,35.0,33.0,9.12,East,89,0.0,5.0,94,0.01,,,0.36,,2013-01-14 13:12:00,
2013-01-14 07:22:00,35.0,33.0,3.30,NNE,12,0.0,9.0,94,0.01,,,0.35,,2013-01-14 13:22:00,
2013-01-14 07:33:00,35.0,33.0,3.30,ENE,64,1.0,4.0,94,0.01,,,0.36,,2013-01-14 13:33:00,
2013-01-14 07:43:00,35.0,33.0,3.30,ENE,64,1.0,4.0,94,0.01,,,0.36,,2013-01-14 13:43:00,
2013-01-14 07:53:00,34.0,32.0,3.30,NE,44,0.0,6.0,94,0.01,,,0.36,,2013-01-14 13:53:00,
2013-01-14 08:02:00,34.0,32.0,1.83,NW,317,1.0,7.0,94,0.02,,,0.37,,2013-01-14 14:02:00,
2013-01-14 08:13:00,34.0,32.0,1.83,NW,317,1.0,7.0,94,0.02,,,0.37,,2013-01-14 14:13:00,
2013-01-14 08:22:00,34.0,32.0,3.30,ENE,60,1.0,8.0,94,0.02,,,0.36,,2013-01-14 14:22:00,
2013-01-14 08:33:00,34.0,32.0,3.31,ESE,119,1.0,6.0,94,0.01,,,0.36,,2013-01-14 14:33:00,
2013-01-14 08:43:00,34.0,32.0,3.31,ESE,119,1.0,6.0,94,0.01,,,0.36,,2013-01-14 14:43:00,
2013-01-14 08:53:00,34.0,32.0,3.31,ESE,119,1.0,6.0,94,0.01,,,0.36,,2013-01-14 14:53:00,
2013-01-14 09:03:00,34.0,32.0,3.31,ESE,119,1.0,6.0,94,0.01,,,0.36,,2013-01-14 15:03:00,
2013-01-14 09:12:00,34.0,32.0,3.31,ESE,119,1.0,6.0,94,0.01,,,0.36,,2013-01-14 15:12:00,
2013-01-14 17:33:00,31.0,30.0,8.71,NNE,23,1.0,9.0,96,0.02,,,0.41,,2013-01-14 23:33:00,
2013-01-14 17:43:00,31.0,30.0,8.71,NNE,23,1.0,9.0,96,0.02,,,0.41,,2013-01-14 23:43:00,
2013-01-14 17:53:00,32.0,31.0,-100.00,West,270,0.0,7.0,96,0.01,,,0.41,,2013-01-14 23:53:00,
2013-01-14 18:02:00,32.0,31.0,-100.00,NNW,346,0.0,6.0,96,0.02,,,0.42,,2013-01-15 00:02:00,
2013-01-14 18:12:00,32.0,31.0,-100.00,NNW,346,0.0,6.0,96,0.02,,,0.42,,2013-01-15 00:12:00,
2013-01-14 18:22:00,32.0,31.0,2.46,NW,313,1.0,3.0,96,0.01,,,0.39,,2013-01-15 00:22:00,
2013-01-14 18:32:00,32.0,31.0,3.54,East,83,0.0,3.0,96,0.02,,,0.40,,2013-01-15 00:32:00,
2013-01-14 18:43:00,32.0,31.0,3.54,East,83,0.0,3.0,96,0.02,,,0.40,,2013-01-15 00:43:00,
2013-01-14 18:53:00,32.0,31.0,3.30,NNW,341,2.0,7.0,96,0.02,,,0.40,,2013-01-15 00:53:00,
2013-01-14 19:02:00,32.0,31.0,3.30,North,355,3.0,7.0,96,0.02,,,0.41,,2013-01-15 01:02:00,
2013-01-14 19:12:00,32.0,31.0,3.30,NE,40,5.0,11.0,96,0.02,,,0.38,,2013-01-15 01:12:00,
2013-01-14 19:22:00,32.0,31.0,3.30,NE,40,5.0,11.0,96,0.02,,,0.38,,2013-01-15 01:22:00,
2013-01-14 19:32:00,33.0,32.0,29.28,NNE,13,0.0,6.0,96,0.02,,,0.39,,2013-01-15 01:32:00,
2013-01-14 19:43:00,33.0,32.0,29.28,NNE,13,0.0,6.0,96,0.02,,,0.39,,2013-01-15 01:43:00,
2013-01-14 19:52:00,33.0,32.0,3.30,NE,35,0.0,3.0,96,0.02,,,0.39,,2013-01-15 01:52:00,
2013-01-14 20:02:00,33.0,32.0,3.30,ESE,112,0.0,0.0,96,0.01,,,0.39,,2013-01-15 02:02:00,
2013-01-14 20:12:00,33.0,32.0,3.30,ESE,112,0.0,0.0,96,0.01,,,0.39,,2013-01-15 02:12:00,
2013-01-14 20:22:00,33.0,32.0,3.30,NE,44,0.0,3.0,96,0.02,,,0.37,,2013-01-15 02:22:00,
2013-01-14 20:32:00,33.0,32.0,3.30,East,91,0.0,3.0,96,0.02,,,0.38,,2013-01-15 02:32:00,
2013-01-14 20:42:00,33.0,32.0,3.30,East,91,0.0,3.0,96,0.02,,,0.38,,2013-01-15 02:42:00,
2013-01-14 20:53:00,33.0,32.0,25.62,East,80,0.0,1.0,96,0.02,,,0.38,,2013-01-15 02:53:00,
2013-01-14 21:02:00,33.0,32.0,3.30,East,80,0.0,1.0,96,0.02,,,0.38,,2013-01-15 03:02:00,
2013-01-14 21:12:00,33.0,32.0,3.30,East,80,0.0,1.0,96,0.02,,,0.38,,2013-01-15 03:12:00,
2013-01-14 21:22:00,33.0,32.0,3.30,East,80,0.0,0.0,96,0.02,,,0.37,,2013-01-15 03:22:00,
2013-01-14 21:33:00,33.0,32.0,29.56,ENE,70,0.0,3.0,96,0.02,,,0.38,,2013-01-15 03:33:00,
2013-01-14 21:42:00,33.0,32.0,29.56,ENE,70,0.0,3.0,96,0.02,,,0.38,,2013-01-15 03:42:00,
2013-01-14 21:53:00,33.0,32.0,5.61,ENE,70,0.0,1.0,96,0.02,,,0.38,,2013-01-15 03:53:00,
2013-01-14 22:02:00,33.0,32.0,-100.00,ENE,58,0.0,3.0,96,0.03,,,0.39,,2013-01-15 04:02:00,
2013-01-14 22:12:00,33.0,32.0,-100.00,ENE,58,0.0,3.0,96,0.03,,,0.39,,2013-01-15 04:12:00,
2013-01-14 22:22:00,33.0,32.0,-100.00,East,89,0.0,2.0,96,0.02,,,0.37,,2013-01-15 04:22:00,
2013-01-14 22:32:00,33.0,32.0,25.56,NE,39,0.0,3.0,96,0.02,,,0.38,,2013-01-15 04:32:00,
2013-01-14 22:42:00,33.0,32.0,25.56,NE,39,0.0,3.0,96,0.02,,,0.38,,2013-01-15 04:42:00,
2013-01-14 22:52:00,33.0,32.0,10.95,NNE,25,0.0,1.0,97,0.02,,,0.38,,2013-01-15 04:52:00,
2013-01-14 23:03:00,33.0,32.0,22.88,ENE,57,0.0,2.0,97,0.02,,,0.39,,2013-01-15 05:03:00,
2013-01-14 23:12:00,33.0,32.0,18.10,NE,43,0.0,2.0,97,0.02,,,0.37,,2013-01-15 05:12:00,
2013-01-14 23:22:00,33.0,32.0,18.10,NE,43,0.0,2.0,97,0.02,,,0.37,,2013-01-15 05:22:00,
2013-01-14 23:33:00,33.0,32.0,25.67,NNW,344,0.0,3.0,96,0.02,,,0.38,,2013-01-15 05:33:00,
2013-01-14 23:42:00,33.0,32.0,25.67,NNW,344,0.0,3.0,96,0.02,,,0.38,,2013-01-15 05:42:00,
2013-01-14 23:52:00,33.0,32.0,25.93,ENE,78,0.0,5.0,97,0.02,,,0.38,,2013-01-15 05:52:00,